Time,TemperatureF,DewpointF,PressureIn,WindDirection,WindDirectionDegrees,WindSpeedMPH,WindSpeedGustMPH,Humidity,HourlyPrecipIn,Conditions,Clouds,dailyrainin,SoftwareType,DateUTC
2013-08-30 01:22:00,75.0,69.0,29.82,WSW,256,0.0,3.0,81,0.00,,,0.00,,2013-08-30 06:22:00,
2013-08-30 01:42:00,75.0,69.0,29.82,West,270,2.0,5.0,82,0.00,,,0.00,,2013-08-30 06:42:00,
2013-08-30 01:53:00,74.0,68.0,29.82,West,261,1.0,4.0,82,0.00,,,0.00,,2013-08-30 06:53:00,
2013-08-30 02:12:00,74.0,68.0,29.82,West,269,0.0,3.0,82,0.00,,,0.00,,2013-08-30 07:12:00,
2013-08-30 02:21:00,74.0,68.0,29.82,WSW,238,0.0,2.0,82,0.00,,,0.00,,2013-08-30 07:21:00,
2013-08-30 02:43:00,74.0,68.0,29.82,West,267,1.0,4.0,83,0.00,,,0.00,,2013-08-30 07:43:00,
2013-08-30 02:53:00,73.0,68.0,29.82,SSW,201,0.0,3.0,84,0.00,,,0.00,,2013-08-30 07:53:00,
2013-08-30 03:11:00,73.0,68.0,29.82,West,273,0.0,3.0,84,0.00,,,0.00,,2013-08-30 08:11:00,
2013-08-30 03:22:00,73.0,68.0,29.82,West,266,1.0,4.0,85,0.00,,,0.00,,2013-08-30 08:22:00,
2013-08-30 03:43:00,72.0,67.0,29.81,West,271,1.0,4.0,85,0.00,,,0.00,,2013-08-30 08:43:00,
2013-08-30 03:52:00,72.0,67.0,29.82,West,270,1.0,5.0,85,0.00,,,0.00,,2013-08-30 08:52:00,
2013-08-30 04:12:00,72.0,67.0,29.82,West,269,0.0,3.0,85,0.00,,,0.00,,2013-08-30 09:12:00,
2013-08-30 04:22:00,72.0,68.0,29.82,West,269,0.0,1.0,86,0.00,,,0.00,,2013-08-30 09:22:00,
2013-08-30 04:44:00,71.0,67.0,29.82,West,269,0.0,1.0,88,0.00,,,0.00,,2013-08-30 09:44:00,
2013-08-30 04:53:00,71.0,67.0,29.81,South,188,0.0,2.0,87,0.00,,,0.00,,2013-08-30 09:53:00,
2013-08-30 05:12:00,71.0,67.0,29.81,South,182,0.0,1.0,88,0.00,,,0.00,,2013-08-30 10:12:00,
2013-08-30 05:23:00,71.0,67.0,29.81,South,181,0.0,1.0,88,0.00,,,0.00,,2013-08-30 10:23:00,
2013-08-30 05:43:00,70.0,66.0,29.81,South,191,0.0,1.0,88,0.00,,,0.00,,2013-08-30 10:43:00,
2013-08-30 05:53:00,70.0,66.0,29.81,SSW,192,0.0,2.0,88,0.00,,,0.00,,2013-08-30 10:53:00,
2013-08-30 06:12:00,69.0,66.0,29.81,South,191,0.0,2.0,91,0.00,,,0.00,,2013-08-30 11:12:00,
2013-08-30 06:22:00,68.0,65.0,29.81,South,190,1.0,2.0,91,0.00,,,0.00,,2013-08-30 11:22:00,
2013-08-30 06:42:00,68.0,65.0,29.81,South,180,1.0,2.0,91,0.00,,,0.00,,2013-08-30 11:42:00,
2013-08-30 06:52:00,68.0,66.0,29.81,South,182,0.0,2.0,92,0.00,,,0.00,,2013-08-30 11:52:00,
2013-08-30 07:12:00,68.0,66.0,29.81,South,180,1.0,3.0,92,0.00,,,0.00,,2013-08-30 12:12:00,
2013-08-30 07:21:00,68.0,66.0,29.82,South,180,0.0,3.0,92,0.00,,,0.00,,2013-08-30 12:21:00,
2013-08-30 07:42:00,67.0,65.0,29.82,South,180,0.0,2.0,92,0.00,,,0.00,,2013-08-30 12:42:00,
2013-08-30 07:52:00,67.0,65.0,29.82,South,181,0.0,0.0,93,0.00,,,0.00,,2013-08-30 12:52:00,
2013-08-30 08:11:00,67.0,65.0,29.82,South,182,0.0,0.0,94,0.00,,,0.00,,2013-08-30 13:11:00,
2013-08-30 08:21:00,68.0,66.0,29.82,South,182,0.0,2.0,94,0.00,,,0.00,,2013-08-30 13:21:00,
2013-08-30 08:52:00,72.0,68.0,29.82,SW,215,2.0,6.0,88,0.00,,,0.00,,2013-08-30 13:52:00,
2013-08-30 09:11:00,74.0,69.0,29.83,West,263,3.0,8.0,84,0.00,,,0.00,,2013-08-30 14:11:00,
2013-08-30 09:21:00,75.0,69.0,29.82,West,264,2.0,5.0,82,0.00,,,0.00,,2013-08-30 14:21:00,
2013-08-30 09:42:00,76.0,69.0,29.82,West,263,3.0,7.0,79,0.00,,,0.00,,2013-08-30 14:42:00,
2013-08-30 09:52:00,77.0,70.0,29.82,West,275,3.0,8.0,78,0.00,,,0.00,,2013-08-30 14:52:00,
2013-08-30 10:11:00,79.0,70.0,29.82,West,264,3.0,7.0,75,0.00,,,0.00,,2013-08-30 15:11:00,
2013-08-30 15:11:00,96.0,75.0,29.79,NW,317,3.0,5.0,51,0.00,,,0.00,,2013-08-30 20:11:00,
2013-08-30 15:22:00,97.0,73.0,29.78,WNW,302,1.0,5.0,47,0.00,,,0.00,,2013-08-30 20:22:00,
2013-08-30 15:52:00,97.0,75.0,29.77,WNW,302,2.0,5.0,50,0.00,,,0.00,,2013-08-30 20:52:00,
2013-08-30 16:22:00,97.0,77.0,29.76,NE,45,1.0,6.0,53,0.00,,,0.00,,2013-08-30 21:22:00,
2013-08-30 16:54:00,97.0,78.0,29.75,NNE,24,1.0,6.0,54,0.00,,,0.00,,2013-08-30 21:54:00,